Location: Pandora
(40.9481°N, 83.9611°W)
Time: 01:44:49
(UTC-04:00)

ISS - Pass Details

Date: 29 September 2021
Orbit: 417 x 423 km, 51.6° (Epoch: 16 October)

Event Time Altitude Azimuth Distance (km) Brightness Sun altitude
Rises 20:25:34 0° 310° (NW) 2,364 1.1 -13.1°
Reaches altitude 10° 20:28:10 10° 331° (NNW) 1,500 -0.4 -13.6°
Maximum altitude 20:30:31 17° 15° (NNE) 1,128 -1.7 -14.0°
Enters shadow 20:31:51 14° 44° (NE) 1,260 -1.7 -14.3°
